Change the Weather History Date:

Thursday, January 16, 2014

  Actual Average Record
Temperature  
Mean Temperature 38 °F -  
Max Temperature 42 °F 40 °F - ()
Min Temperature 34 °F 29 °F - ()
Degree Days  
Heating Degree Days 27    
Moisture  
Dew Point 37 °F    
Average Humidity 90    
Maximum Humidity 100    
Minimum Humidity 59    
Precipitation  
Precipitation 0.12 in 0.10 in - ()
Sea Level Pressure  
Sea Level Pressure 29.75 in    
Wind  
Wind Speed 1 mph ()    
Max Wind Speed 8 mph    
Max Gust Speed -    
Visibility 7.1 miles    
Events Rain    
T = Trace of Precipitation, MM = Missing Value Source: Averaged Metar Reports

Daily Weather History Graph

Daily Weather History Graph

Search for Another Location

Airport or City:

Trip Planner

Search our weather history database for the weather conditions in past years. The results will help you decide how hot, cold, wet, or windy it might be!

Date:

Astronomy

Jan. 16, 2014 Rise Set
Actual Time 8:13 AM CET 5:17 PM CET
Civil Twilight 7:40 AM CET 5:50 PM CET
Nautical Twilight 7:02 AM CET 6:27 PM CET
Astronomical Twilight 6:27 AM CET 7:03 PM CET
Moon 5:59 PM CET (1/16) 7:53 AM CET (1/16)
Length of Visible Light 10h 10m
Length of Day
9h 03m
Full, 100% of the Moon is Illuminated
Jan 16
Full
Jan 24
Last Quarter
Jan 30
New
Feb 6
First Quarter
Feb 15
Full

Hourly Weather History & Observations

Time (CET) Temp. Windchill Dew Point Humidity Pressure Visibility Wind Dir Wind Speed Gust Speed Precip Events Conditions
12:00 AM 37 °F - 34 °F 83% 29.91 in - West 3.5 mph - -  
12:20 AM 37.4 °F - 35.6 °F 93% 29.86 in 6.2 mi Calm Calm - N/A   Mostly Cloudy
12:50 AM 37.4 °F - 35.6 °F 93% 29.83 in 6.2 mi Calm Calm - N/A   Mostly Cloudy
1:00 AM 37 °F - 33 °F 82% 29.89 in 16 mi North 2.3 mph - -   Overcast
1:20 AM 37.4 °F - 35.6 °F 93% 29.83 in 6.2 mi Calm Calm - N/A   Mostly Cloudy
1:50 AM 35.6 °F - 33.8 °F 93% 29.83 in - Calm Calm - N/A   Clear
2:00 AM 36 °F - 34 °F 87% 29.88 in - South 1.2 mph - -  
2:50 AM 35.6 °F - 33.8 °F 93% 29.83 in - Calm Calm - N/A   Clear
3:00 AM 36 °F - 34 °F 87% 29.88 in - ENE 2.3 mph - -  
3:20 AM 35.6 °F - 35.6 °F 100% 29.83 in - Calm Calm - N/A   Clear
3:50 AM 35.6 °F - 35.6 °F 100% 29.80 in - Calm Calm - N/A   Clear
4:00 AM 36 °F - 34 °F 88% 29.87 in 19 mi West 1.2 mph - -   Overcast
4:20 AM 35.6 °F - 35.6 °F 100% 29.80 in - Calm Calm - N/A   Clear
4:50 AM 35.6 °F - 35.6 °F 100% 29.80 in 6.2 mi Calm Calm - N/A   Mostly Cloudy
5:00 AM 36 °F - 34 °F 88% 29.84 in - NNE 2.3 mph - -  
5:20 AM 35.6 °F - 35.6 °F 100% 29.77 in - Calm Calm - N/A   Clear
5:50 AM 35.6 °F - 33.8 °F 93% 29.77 in - Calm Calm - N/A   Clear
6:00 AM 36 °F - 33 °F 83% 29.82 in - West 1.2 mph - -  
6:20 AM 35.6 °F - 33.8 °F 93% 29.74 in - Calm Calm - N/A   Clear
6:50 AM 35.6 °F - 33.8 °F 93% 29.74 in - Calm Calm - N/A   Clear
7:00 AM 35 °F - 33 °F 87% 29.81 in 19 mi ESE 2.3 mph - -   Partly Cloudy
7:20 AM 35.6 °F - 33.8 °F 93% 29.74 in - Calm Calm - N/A   Clear
7:50 AM 35.6 °F - 33.8 °F 93% 29.74 in 6.2 mi Calm Calm - N/A   Mostly Cloudy
8:00 AM 36 °F - 33 °F 83% 29.82 in - NNW 2.3 mph - -  
8:20 AM 35.6 °F - 33.8 °F 93% 29.77 in 6.2 mi Calm Calm - N/A   Mostly Cloudy
8:50 AM 35.6 °F - 33.8 °F 93% 29.77 in 6.2 mi Calm Calm - N/A   Mostly Cloudy
9:00 AM 38 °F - 33 °F 77% 29.82 in - NW 1.2 mph - -  
9:20 AM 37.4 °F - 35.6 °F 93% 29.77 in 6.2 mi Variable 1.2 mph - N/A   Mostly Cloudy
9:50 AM 39.2 °F - 33.8 °F 81% 29.77 in 6.2 mi Variable 1.2 mph - N/A   Mostly Cloudy
10:00 AM 40 °F - 34 °F 70% 29.81 in 19 mi NNW 1.2 mph - -   Mostly Cloudy
10:20 AM 39.2 °F - 35.6 °F 87% 29.77 in 6.2 mi Variable 1.2 mph - N/A   Mostly Cloudy
10:50 AM 41.0 °F - 33.8 °F 76% 29.77 in 6.2 mi Variable 1.2 mph - N/A   Mostly Cloudy
11:00 AM 42 °F - 33 °F 59% 29.80 in - WSW 1.2 mph - -  
11:20 AM 42.8 °F - 35.6 °F 76% 29.74 in 6.2 mi Calm Calm - N/A Rain Light Rain
11:50 AM 42.8 °F - 37.4 °F 81% 29.74 in 6.2 mi Variable 1.2 mph - N/A   Mostly Cloudy
12:00 PM 42 °F - 35 °F 70% 29.77 in - NNE 2.3 mph - -  
12:20 PM 42.8 °F - 37.4 °F 81% 29.71 in 6.2 mi Calm Calm - N/A   Mostly Cloudy
12:50 PM 42.8 °F - 37.4 °F 81% 29.71 in 6.2 mi Variable 2.3 mph - N/A Rain Light Rain
1:00 PM 42 °F - 35 °F 68% 29.74 in 19 mi NE 3.5 mph - - Rain Light Rain
1:20 PM 41.0 °F 38.0 °F 37.4 °F 87% 29.68 in 6.2 mi East 4.6 mph - N/A   Mostly Cloudy
1:50 PM 41.0 °F 39.0 °F 37.4 °F 87% 29.68 in 6.2 mi Variable 3.5 mph - N/A   Mostly Cloudy
2:00 PM 41 °F - 37 °F 80% 29.72 in - NE 4.6 mph - -  
2:20 PM 41.0 °F 39.0 °F 37.4 °F 87% 29.68 in 6.2 mi ENE 3.5 mph - N/A Rain Light Rain
2:50 PM 41.0 °F - 37.4 °F 87% 29.68 in 6.2 mi Variable 1.2 mph - N/A Rain Light Rain
3:00 PM 41 °F - 37 °F 80% 29.71 in - North 3.5 mph - -  
3:20 PM 41.0 °F 39.0 °F 39.2 °F 93% 29.68 in 6.2 mi Variable 3.5 mph - N/A Rain Light Rain
3:50 PM 41.0 °F - 39.2 °F 93% 29.65 in 6.2 mi Variable 1.2 mph - N/A Rain Light Rain
4:00 PM 40 °F - 38 °F 88% 29.70 in 14 mi North 3.5 mph - - Rain Light Rain
4:20 PM 39.2 °F - 39.2 °F 100% 29.65 in 6.2 mi Variable 1.2 mph - N/A   Mostly Cloudy
4:50 PM 39.2 °F - 39.2 °F 100% 29.65 in 6.2 mi Variable 1.2 mph - N/A   Mostly Cloudy
5:00 PM 40 °F - 38 °F 88% 29.70 in - North 1.2 mph - -  
5:20 PM 39.2 °F - 39.2 °F 100% 29.65 in 6.2 mi Variable 2.3 mph - N/A   Mostly Cloudy
5:50 PM 39.2 °F - 39.2 °F 100% 29.68 in 4.3 mi Calm Calm - N/A Rain Light Rain
6:00 PM 41 °F - 38 °F 87% 29.71 in - North 2.3 mph - -  
6:20 PM 39.2 °F - 39.2 °F 100% 29.68 in 3.7 mi Calm Calm - N/A Rain Light Rain
6:50 PM 39.2 °F - 39.2 °F 100% 29.68 in - Variable 1.2 mph - N/A Rain Rain
7:00 PM 41 °F - 38 °F 86% 29.73 in 3 mi NNW 2.3 mph - - Rain Rain
7:20 PM 39.2 °F - 39.2 °F 100% 29.68 in - Variable 1.2 mph - N/A Rain Rain
7:50 PM 39.2 °F 35.9 °F 39.2 °F 100% 29.68 in - East 4.6 mph - N/A Rain Rain
8:00 PM 41 °F - 39 °F 91% 29.74 in - NE 4.6 mph - -  
8:20 PM 39.2 °F 37.0 °F 39.2 °F 100% 29.68 in 1.8 mi Variable 3.5 mph - N/A Rain Rain
8:50 PM 39.2 °F - 39.2 °F 100% 29.71 in 2.2 mi Variable 2.3 mph - N/A Rain Rain
9:00 PM 41 °F - 39 °F 89% 29.75 in - North 3.5 mph - -  
9:20 PM 39.2 °F 34.2 °F 39.2 °F 100% 29.71 in 2.5 mi ENE 6.9 mph - N/A Rain Rain
9:50 PM 41.0 °F 38.0 °F 41.0 °F 100% 29.71 in - East 4.6 mph - N/A Rain Light Rain
10:00 PM 41 °F - 40 °F 94% 29.76 in 3 mi North 3.5 mph - - Rain Light Rain
10:20 PM 41.0 °F 39.0 °F 41.0 °F 100% 29.71 in 2.5 mi Variable 3.5 mph - N/A Rain Rain
10:50 PM 41.0 °F 36.4 °F 41.0 °F 100% 29.71 in 2.8 mi East 6.9 mph - N/A Rain Rain
11:00 PM 42 °F - 40 °F 88% 29.76 in - ESE 5.8 mph - -  
11:20 PM 41.0 °F 35.8 °F 41.0 °F 100% 29.71 in 5.0 mi ESE 8.1 mph - N/A Rain Light Rain
11:50 PM 39.2 °F - 39.2 °F 100% 29.74 in 5.6 mi Variable 1.2 mph - N/A Rain Light Rain